Regional Weather Roundup
Issued by NWS

Home | Current Version | Previous Version | Graphics & Text | Print | Product List | Glossary On
Versions: 1 2 3 4 5 6 7 8 9 10 11 12 13 14 15 16 17 18 19 20 21 22 23 24 25 26 27 28 29 30 31 32 33 34 35 36 37 38 39 40 41 42 43 44 45 46 47 48 49 50
000
ASUS43 KDMX 231406
RWRIA

WEATHER ROUNDUP FOR IOWA
NATIONAL WEATHER SERVICE DES MOINES IA
900 AM CDT WED AUG 23 2017

NOTE: "FAIR" INDICATES FEW OR NO CLOUDS BELOW 12,000 FEET WITH NO
SIGNIFICANT WEATHER AND/OR OBSTRUCTIONS TO VISIBILITY.

* - THESE STATIONS ARE NOT NWS STATIONS...THUS NOT UNDER NWS
QUALITY CONTROL.  THEY ALSO DO NOT REPORT WEATHER SUCH
AS PRECIPITATION OR FOG.

IAZ001>003-012>014-020>022-031>034-043>046-231500-
   NORTHWEST IOWA

CITY           SKY/WX    TMP DP  RH WIND       PRES   REMARKS
CARROLL *      SUNNY     63  59  88 W5        30.16S
CHEROKEE *     SUNNY     56  56 100 CALM      30.17S
DENISON *      SUNNY     59  55  88 CALM      30.19R
LE MARS *      SUNNY    106 N/A N/A CALM      30.16F
ORANGE CITY *  SUNNY     63  59  88 CALM      30.16F
SHELDON *      SUNNY     59  55  88 CALM      30.15S
SIOUX CITY     SUNNY     61  57  87 E3        30.16F
SPENCER        SUNNY     61  55  81 CALM      30.16S
STORM LAKE *   SUNNY     63  54  72 W6        30.17S
$$

IAZ055>058-069>071-079>083-090>094-231500-
   SOUTHWEST IOWA

CITY           SKY/WX    TMP DP  RH WIND       PRES   REMARKS
ATLANTIC *     SUNNY     59  57  94 CALM      30.17S
AUDUBON *      SUNNY     63  57  82 CALM      30.18R
CLARINDA *     SUNNY     59  59 100 CALM      30.19S
COUNCIL BLFS * SUNNY     64  59  82 NW5       30.17S
CRESTON *      SUNNY     64  57  77 W6        30.18R
HARLAN  *      SUNNY     59  57  94 CALM      30.20S
LAMONI         SUNNY     67  55  65 N5        30.16R
RED OAK *      SUNNY     61  57  88 CALM      30.18R
SHENANDOAH *   SUNNY     61  57  88 CALM      30.18S
$$

IAZ047>049-059>061-072>074-084-231500-
   CENTRAL IOWA

CITY           SKY/WX    TMP DP  RH WIND       PRES   REMARKS
AMES           SUNNY     63  57  81 CALM      30.15S
ANKENY *       PTSUNNY   64  55  72 NW5       30.16S
BOONE *        SUNNY     64  54  68 W7        30.15R
CHARITON *     SUNNY     63  57  82 NW5       30.15S
DES MOINES     SUNNY     64  55  72 NW3       30.15R
GRINNELL*      SUNNY     61  56  81 CALM      30.15S
KNOXVILLE *    SUNNY     61  55  82 NW6       30.14R
MARSHALLTOWN   SUNNY     61  56  83 NW7       30.14R
NEWTON *       SUNNY     63  55  77 W6        30.15R
PELLA *        SUNNY     63  55  75 NW3       30.16R
PERRY *          N/A     62  57  84 NW3       30.16S
$$

IAZ004>006-015-016-023>025-035-036-231500-
   NORTH CENTRAL IOWA

CITY           SKY/WX    TMP DP  RH WIND       PRES   REMARKS
ALGONA *       SUNNY     64  59  82 NW3       30.15F
CLARION *      SUNNY     59  55  88 NW5       30.15S
ESTHERVILLE    SUNNY     61  56  83 W3        30.15R
FORT DODGE *   SUNNY     61  54  77 W3        30.16S
MASON CITY     SUNNY     61  53  75 NW8       30.15S
FOREST CITY *    N/A     63  55  77 NW6       30.15S
WEBSTER CITY * SUNNY     61  55  82 NW5       30.13S
IOWA FALLS *     N/A     62  56  81 NW5       30.16S
$$

IAZ007>011-017>019-026>030-037>042-050>054-066-231500-
   NORTHEAST IOWA

CITY           SKY/WX    TMP DP  RH WIND       PRES   REMARKS
CEDAR RAPIDS   SUNNY     61  54  77 NW7       30.11S
CHARLES CITY * SUNNY     59  55  88 W6        30.14R
CLINTON *      SUNNY     62  56  80 NW8       30.10S
DECORAH *      SUNNY     59  52  77 NW6       30.10S
DUBUQUE        SUNNY     63  52  67 N10       30.10S
MONTICELLO *   SUNNY     63  54  72 CALM      30.10S
OELWEIN *      SUNNY     59  55  88 NW7       30.12F
WATERLOO       SUNNY     61  53  75 NW7       30.12S
$$

IAZ064-065-067-068-078-231500-
   EAST CENTRAL IOWA

CITY           SKY/WX    TMP DP  RH WIND       PRES   REMARKS
DAVENPORT      SUNNY     61  53  75 NW8       30.12R
IOWA CITY      SUNNY     65  53  65 NW9       30.13S
MT. PLEASANT * SUNNY     65  52  62 NW7       30.13S
MUSCATINE *    SUNNY     63  54  72 VRB5      30.12R
QUAD CITIES    SUNNY     66  51  58 NW8       30.10R
$$

IAZ062-063-075>077-085>089-095>099-231500-
   SOUTHEAST IOWA

CITY           SKY/WX    TMP DP  RH WIND       PRES   REMARKS
BURLINGTON     SUNNY     65  56  72 NW5       30.12R
FAIRFIELD *    SUNNY     63  55  77 NW7       30.13R
FORT MADISON * SUNNY     63  57  82 NW3       30.13S
KEOKUK *       SUNNY     64  55  72 NW6       30.13R
OSKALOOSA *      N/A     62  56  82 NW7       30.15R
CENTERVILLE *    N/A     64  59  82 CALM      30.17R
OTTUMWA        SUNNY     64  57  78 NW6       30.14R
WASHINGTON *   SUNNY     63  57  82 NW6       30.14R
$$

ABBREVIATIONS USED IN REMARKS
   TC - TEMPERATURES IN CELSIUS
  WCI - WIND CHILL INDEX
   HX - HEAT INDEX
  VSB - VISIBILITY
$$





USA.gov is the U.S. government's official web portal to all federal, state and local government web resources and services.